SQ5DCP-1 Weather Reports


time (UTC)temp
C
wind
direction
speed
KPH
gust
KPH
rain 1hr
cm
rain 24hr
cm
rain mn
cm
humidity
%
barometer
mb
20260901052035 16 280 8.0 17.7 0.00 0.20 0.00 80 1015.8
20260901051533 16 294 8.0 16.1 0.00 0.20 0.00 80 1015.7
20260901051032 16 274 6.4 12.9 0.00 0.20 0.00 80 1015.7
20260901050530 16 292 4.8 11.3 0.00 0.20 0.00 80 1015.6
20260901050028 16 295 6.4 12.9 0.00 0.20 0.00 80 1015.6
20260901045525 16 290 6.4 12.9 0.00 0.20 0.00 80 1015.5
20260901045024 16 288 6.4 12.9 0.00 0.20 0.00 80 1015.5
20260901044522 16 286 6.4 11.3 0.00 0.20 0.00 80 1015.4
20260901044020 16 279 6.4 12.9 0.00 0.20 0.00 80 1015.4
20260901043518 16 271 6.4 11.3 0.00 0.20 0.00 80 1015.3
20260901043047 16 284 8.0 17.7 0.00 0.20 0.00 80 1015.3
20260901043016 16 284 8.0 17.7 0.00 0.20 0.00 80 1015.3
20260901042534 16 285 9.7 17.7 0.00 0.20 0.00 80 1015.2
20260901042033 16 282 6.4 12.9 0.00 0.20 0.00 80 1015.0
20260901041531 16 289 6.4 16.1 0.00 0.20 0.00 80 1015.0
20260901041029 16 288 6.4 12.9 0.00 0.20 0.00 80 1014.9
20260901040527 16 287 8.0 16.1 0.00 0.20 0.00 80 1014.8
20260901040025 16 293 8.0 14.5 0.00 0.20 0.00 80 1014.8
20260901035523 16 276 8.0 17.7 0.00 0.20 0.00 80 1014.8
20260901035021 16 290 8.0 17.7 0.00 0.20 0.00 81 1014.9
20260901034519 16 280 8.0 16.1 0.00 0.20 0.00 81 1014.9
20260901034048 16 283 6.4 12.9 0.00 0.20 0.00 81 1014.8
20260901034017 16 283 6.4 12.9 0.00 0.20 0.00 81 1014.8
20260901033535 16 282 6.4 14.5 0.00 0.20 0.00 81 1014.8
20260901033033 16 286 4.8 9.7 0.00 0.20 0.00 81 1014.9
20260901032531 16 284 6.4 14.5 0.00 0.20 0.00 82 1014.9
20260901032030 16 292 8.0 14.5 0.00 0.20 0.00 82 1014.9
20260901031527 16 285 8.0 20.9 0.00 0.20 0.00 83 1014.9
20260901031026 16 286 6.4 17.7 0.00 0.20 0.00 83 1014.9
20260901030524 16 277 3.2 9.7 0.00 0.20 0.00 84 1014.9
20260901030022 16 282 4.8 12.9 0.00 0.20 0.00 84 1015.0
20260901025520 16 282 3.2 6.4 0.00 0.20 0.00 84 1014.8
20260901025050 16 268 3.2 6.4 0.00 0.20 0.00 84 1014.9
20260901025018 16 268 3.2 6.4 0.00 0.20 0.00 84 1014.9
20260901024516 16 273 3.2 6.4 0.00 0.20 0.00 84 1014.9
20260901024035 16 263 1.6 6.4 0.00 0.20 0.00 84 1014.9
20260901023533 16 241 1.6 4.8 0.00 0.20 0.00 84 1015.0
20260901023031 16 251 1.6 11.3 0.00 0.20 0.00 84 1014.9
20260901022529 16 255 1.6 9.7 0.00 0.20 0.00 84 1014.9
20260901022027 16 261 0.0 4.8 0.00 0.20 0.00 84 1014.7
20260901021525 16 260 1.6 4.8 0.00 0.20 0.00 84 1014.7
20260901021023 16 0.0 0.0 0.00 0.20 0.00 84 1014.7
20260901020521 16 264 0.0 3.2 0.00 0.20 0.00 84 1014.7
20260901020019 16 261 0.0 4.8 0.00 0.20 0.00 84 1014.7
20260901015517 16 0.0 0.0 0.00 0.20 0.00 84 1014.7
20260901015047 16 0.0 0.0 0.00 0.20 0.00 84 1014.7
20260901015015 16 0.0 0.0 0.00 0.20 0.00 84 1014.7
20260901014534 16 238 0.0 1.6 0.00 0.20 0.00 84 1014.8
20260901014032 16 253 0.0 3.2 0.00 0.20 0.00 84 1015.0
20260901013530 16 260 0.0 3.2 0.00 0.20 0.00 84 1014.9
20260901013029 16 223 0.0 6.4 0.00 0.20 0.00 84 1014.8
20260901012527 16 231 1.6 6.4 0.00 0.20 0.00 84 1014.8
20260901012025 16 246 0.0 3.2 0.00 0.20 0.00 84 1014.8
20260901011523 16 229 0.0 1.6 0.00 0.20 0.00 84 1014.8
20260901011021 16 231 1.6 4.8 0.00 0.20 0.00 84 1014.8
20260901010519 16 230 0.0 1.6 0.00 0.20 0.00 84 1014.7
20260901010049 16 276 1.6 6.4 0.00 0.20 0.00 83 1014.8
20260901010017 16 276 1.6 6.4 0.00 0.20 0.00 83 1014.8
20260901005535 16 285 1.6 6.4 0.00 0.20 0.00 83 1014.9
20260901005033 16 282 1.6 6.4 0.00 0.20 0.00 83 1014.9
20260901004531 16 259 1.6 3.2 0.00 0.20 0.00 83 1014.9
20260901004030 16 290 0.0 1.6 0.00 0.20 0.00 83 1014.9
20260901003528 16 0.0 0.0 0.00 0.20 0.00 83 1015.0
20260901003059 16 0.0 0.0 0.00 0.20 0.00 83 1014.8
20260901003026 16 0.0 0.0 0.00 0.20 0.00 83 1014.8
20260901002524 16 0.0 0.0 0.00 0.20 0.00 83 1014.8
20260901002022 16 0.0 0.0 0.00 0.20 0.00 83 1014.8
20260901001520 16 0.0 0.0 0.00 0.20 0.00 82 1015.0
20260901001050 16 0.0 0.0 0.00 0.20 0.00 82 1014.9
20260901001018 16 0.0 0.0 0.00 0.20 0.00 82 1014.9
20260901000516 16 0.0 0.0 0.00 0.20 0.00 82 1014.9
20260901000035 16 0.0 0.0 0.00 0.20 0.00 82 1015.0
20260831235533 16 198 0.0 1.6 0.00 0.20 0.00 82 1015.0
20260831235031 16 0.0 0.0 0.00 0.20 0.00 82 1015.1
20260831234529 16 223 0.0 1.6 0.00 0.20 0.00 82 1015.2
20260831234027 16 0.0 0.0 0.00 0.20 0.00 82 1015.3
20260831233525 16 0.0 0.0 0.00 0.20 0.00 81 1015.4
20260831233023 16 0.0 0.0 0.00 0.20 0.00 81 1015.4
20260831232521 16 0.0 0.0 0.00 0.20 0.00 81 1015.5
20260831232019 16 0.0 0.0 0.00 0.20 0.00 81 1015.4
20260831231518 16 0.0 0.0 0.00 0.20 0.00 81 1015.4
20260831231049 16 0.0 0.0 0.00 0.20 0.00 81 1015.4
20260831231016 16 0.0 0.0 0.00 0.20 0.00 81 1015.4
20260831230534 16 0.0 0.0 0.00 0.20 0.00 81 1015.3
20260831230032 16 150 0.0 1.6 0.00 0.20 0.00 81 1015.3
20260831225530 16 150 0.0 1.6 0.00 0.20 0.00 81 1015.3
20260831225028 17 152 0.0 3.2 0.00 0.20 0.00 81 1015.3
20260831224527 17 0.0 0.0 0.00 0.20 0.00 81 1015.4
20260831224025 17 0.0 0.0 0.00 0.20 0.00 81 1015.4
20260831223523 17 0.0 0.0 0.00 0.20 0.00 81 1015.4
20260831223021 17 0.0 0.0 0.00 0.20 0.00 81 1015.6
20260831222519 17 0.0 0.0 0.00 0.20 0.00 81 1015.7
20260831222049 17 0.0 0.0 0.00 0.20 0.00 81 1015.6
20260831222017 17 0.0 0.0 0.00 0.20 0.00 81 1015.6
20260831221535 17 0.0 0.0 0.00 0.20 0.00 81 1015.5
20260831221033 17 0.0 0.0 0.00 0.20 0.00 81 1015.4
20260831220532 17 0.0 0.0 0.00 0.20 0.00 81 1015.5
20260831220030 17 0.0 0.0 0.00 0.20 0.20 80 1015.4
20260831215528 17 0.0 0.0 0.00 0.20 0.20 80 1015.3
20260831215026 17 0.0 0.0 0.00 0.20 0.20 80 1015.2
20260831214524 17 0.0 0.0 0.00 0.20 0.20 80 1015.4
20260831214022 17 0.0 0.0 0.00 0.20 0.20 80 1015.4
20260831213522 17 0.0 0.0 0.00 0.20 0.20 80 1015.4
20260831213018 17 0.0 0.0 0.00 0.20 0.20 80 1015.4
20260831212517 17 0.0 0.0 0.00 0.20 0.20 80 1015.6
20260831212035 18 0.0 0.0 0.00 0.20 0.20 80 1015.5
20260831211533 18 0.0 0.0 0.00 0.20 0.20 80 1015.4
20260831211031 18 0.0 0.0 0.00 0.20 0.20 80 1015.4
20260831210529 18 0.0 0.0 0.00 0.20 0.20 80 1015.3
20260831210027 18 0.0 0.0 0.00 0.20 0.20 80 1015.4
20260831205526 18 0.0 0.0 0.00 0.20 0.20 80 1015.4
20260831205024 18 0.0 0.0 0.00 0.20 0.20 80 1015.4
20260831204522 18 0.0 0.0 0.00 0.20 0.20 80 1015.4
20260831204020 18 0.0 0.0 0.00 0.20 0.20 80 1015.4
20260831203518 18 0.0 0.0 0.00 0.20 0.20 80 1015.3
20260831203047 18 0.0 0.0 0.00 0.20 0.20 80 1015.3
20260831203016 18 0.0 0.0 0.00 0.20 0.20 80 1015.3
20260831202534 18 0.0 0.0 0.00 0.20 0.20 80 1015.4
20260831202032 18 0.0 0.0 0.00 0.20 0.20 80 1015.4
20260831201530 18 104 0.0 3.2 0.00 0.20 0.20 80 1015.3
20260831201029 18 111 0.0 3.2 0.00 0.20 0.20 79 1015.4
20260831200527 18 0.0 0.0 0.00 0.20 0.20 79 1015.5
20260831200025 18 0.0 0.0 0.00 0.20 0.20 80 1015.4
20260831195523 19 0.0 0.0 0.00 0.20 0.20 80 1015.5
20260831195021 19 0.0 0.0 0.00 0.20 0.20 80 1015.6
20260831194520 19 0.0 0.0 0.00 0.20 0.20 79 1015.5
20260831194017 19 0.0 0.0 0.00 0.20 0.20 79 1015.4
20260831193535 19 0.0 0.0 0.00 0.20 0.20 79 1015.5
20260831193034 19 0.0 0.0 0.00 0.20 0.20 79 1015.6
20260831192532 19 0.0 0.0 0.00 0.20 0.20 79 1015.6
20260831192030 19 0.0 0.0 0.00 0.20 0.20 79 1015.6
20260831191528 19 0.0 0.0 0.00 0.20 0.20 79 1015.7
20260831191026 19 0.0 0.0 0.00 0.20 0.20 79 1015.7
20260831190524 19 0.0 0.0 0.00 0.20 0.20 79 1015.6
20260831190022 19 0.0 0.0 0.00 0.20 0.20 79 1015.7
20260831185520 19 0.0 0.0 0.00 0.20 0.20 78 1015.6
20260831185018 20 0.0 0.0 0.00 0.20 0.20 78 1015.7
20260831184517 20 0.0 0.0 0.00 0.20 0.20 78 1015.7
20260831184035 20 0.0 0.0 0.00 0.20 0.20 78 1015.7
20260831183533 20 0.0 0.0 0.00 0.20 0.20 78 1015.6
20260831183031 20 0.0 0.0 0.00 0.20 0.20 78 1015.7
20260831182530 20 0.0 0.0 0.00 0.20 0.20 78 1015.7
20260831182028 20 184 0.0 3.2 0.00 0.20 0.20 78 1015.7
20260831181525 20 0.0 0.0 0.00 0.20 0.20 78 1015.6
20260831181024 20 0.0 0.0 0.00 0.20 0.20 78 1015.5
20260831180522 20 193 0.0 4.8 0.00 0.20 0.20 78 1015.4
20260831180020 20 205 0.0 6.4 0.00 0.20 0.20 77 1015.2
20260831175518 20 0.0 0.0 0.00 0.20 0.20 77 1015.0
20260831175017 20 0.0 0.0 0.00 0.20 0.20 77 1015.0
20260831174535 20 192 0.0 3.2 0.00 0.20 0.20 77 1014.8
20260831174033 20 181 0.0 3.2 0.00 0.20 0.20 77 1014.8
20260831173531 20 195 0.0 3.2 0.00 0.20 0.20 77 1015.0
20260831173029 20 0.0 0.0 0.00 0.20 0.20 77 1014.9
20260831172527 20 0.0 0.0 0.00 0.20 0.20 77 1014.9
20260831172059 20 194 0.0 4.8 0.00 0.20 0.20 77 1014.9
20260831172025 20 194 0.0 4.8 0.00 0.20 0.20 77 1014.9
20260831171523 20 176 1.6 6.4 0.00 0.20 0.20 77 1014.7
20260831171021 20 193 0.0 3.2 0.00 0.20 0.20 77 1014.8
20260831170520 20 0.0 0.0 0.00 0.20 0.20 77 1014.7
20260831170018 20 226 0.0 3.2 0.00 0.20 0.20 77 1014.8
20260831165516 20 0.0 0.0 0.00 0.20 0.20 77 1014.7
20260831165034 20 0.0 0.0 0.00 0.20 0.20 77 1014.8
20260831164532 20 0.0 0.0 0.00 0.20 0.20 76 1014.6
20260831164030 20 0.0 0.0 0.00 0.20 0.20 76 1014.4
20260831163529 20 0.0 0.0 0.00 0.20 0.20 76 1014.6
20260831163027 20 204 0.0 1.6 0.00 0.20 0.20 76 1014.5
20260831162525 20 0.0 0.0 0.00 0.20 0.20 76 1014.5
20260831162023 20 0.0 0.0 0.00 0.20 0.20 75 1014.5
20260831161522 21 0.0 0.0 0.00 0.20 0.20 75 1014.5
20260831161054 21 0.0 0.0 0.00 0.20 0.20 75 1014.4
20260831161019 21 0.0 0.0 0.00 0.20 0.20 75 1014.4
20260831160517 21 0.0 0.0 0.00 0.20 0.20 75 1014.5
20260831160035 21 0.0 0.0 0.00 0.20 0.20 75 1014.5
20260831155534 21 0.0 0.0 0.00 0.20 0.20 75 1014.6
20260831155032 21 0.0 0.0 0.00 0.20 0.20 75 1014.7
20260831154530 21 0.0 0.0 0.00 0.20 0.20 75 1014.6
20260831154028 21 301 0.0 3.2 0.00 0.20 0.20 75 1014.6
20260831153526 21 0.0 0.0 0.00 0.20 0.20 74 1014.6
20260831153024 21 349 0.0 1.6 0.00 0.20 0.20 74 1014.6
20260831152522 21 323 0.0 3.2 0.00 0.20 0.20 74 1014.7
20260831152021 21 0.0 0.0 0.00 0.20 0.20 74 1014.6
20260831151519 21 0.0 0.0 0.18 0.20 0.20 74 1014.7
20260831151100 21 350 1.6 3.2 0.18 0.20 0.20 74 1014.8
20260831151017 21 350 1.6 3.2 0.18 0.20 0.20 74 1014.8
20260831150535 21 347 0.0 3.2 0.18 0.20 0.20 74 1014.8
20260831150107 21 353 0.0 1.6 0.18 0.20 0.20 75 1014.7
20260831150033 21 353 0.0 1.6 0.18 0.20 0.20 75 1014.7
20260831145531 21 343 0.0 4.8 0.18 0.20 0.20 75 1014.7
20260831145029 21 356 1.6 6.4 0.20 0.20 0.20 76 1014.8
20260831144527 21 311 1.6 4.8 0.20 0.20 0.20 76 1014.9
20260831144025 21 301 1.6 4.8 0.20 0.20 0.20 77 1014.8
20260831143523 21 304 4.8 12.9 0.20 0.20 0.20 77 1014.9
20260831143021 21 358 6.4 16.1 0.20 0.20 0.20 76 1014.9
20260831142519 21 310 9.7 25.7 0.20 0.20 0.20 75 1015.1
20260831142051 22 325 11.3 35.4 0.20 0.20 0.20 72 1015.7
20260831142017 22 325 11.3 35.4 0.20 0.20 0.20 72 1015.7
20260831141516 22 284 16.1 33.8 0.03 0.03 0.03 69 1015.7
20260831141034 22 293 1.6 9.7 0.03 0.03 0.03 66 1014.1
20260831140533 22 58 0.0 3.2 0.03 0.03 0.03 66 1013.9
20260831140030 22 51 1.6 4.8 0.03 0.03 0.03 66 1014.1
20260831135528 22 341 4.8 12.9 0.03 0.03 0.03 65 1014.5
20260831135026 22 351 3.2 11.3 0.00 0.00 0.00 65 1014.5
20260831134524 23 12 1.6 11.3 0.00 0.00 0.00 65 1014.4
20260831134059 23 356 4.8 14.5 0.00 0.00 0.00 64 1014.5
20260831134023 23 356 4.8 14.5 0.00 0.00 0.00 64 1014.5
20260831133520 23 348 4.8 14.5 0.00 0.00 0.00 62 1014.7
20260831133019 23 302 1.6 6.4 0.00 0.00 0.00 60 1014.7
20260831132517 24 299 1.6 4.8 0.00 0.00 0.00 59 1014.8
20260831132035 24 315 4.8 11.3 0.00 0.00 0.00 57 1014.7
20260831131533 25 344 9.7 25.7 0.00 0.00 0.00 55 1014.7
20260831131031 25 321 14.5 33.8 0.00 0.00 0.00 53 1014.9
20260831130529 25 327 11.3 20.9 0.00 0.00 0.00 52 1014.8
20260831130028 26 337 9.7 20.9 0.00 0.00 0.00 50 1014.5
20260831125525 26 303 11.3 25.7 0.00 0.00 0.00 49 1014.4
20260831125023 26 296 6.4 20.9 0.00 0.00 0.00 49 1014.4
20260831124521 26 289 4.8 12.9 0.00 0.00 0.00 49 1014.3
20260831124020 26 289 4.8 14.5 0.00 0.00 0.00 50 1014.4
20260831123518 26 279 3.2 11.3 0.00 0.00 0.00 50 1014.4
20260831123016 26 291 1.6 6.4 0.00 0.00 0.00 49 1014.5
20260831122535 26 283 3.2 9.7 0.00 0.00 0.00 48 1014.5
20260831122033 26 255 6.4 14.5 0.00 0.00 0.00 48 1014.4
20260831121530 26 258 3.2 11.3 0.00 0.00 0.00 48 1014.4
20260831121029 26 276 4.8 12.9 0.00 0.00 0.00 48 1014.6
20260831120527 26 253 6.4 16.1 0.00 0.00 0.00 48 1014.5
20260831120025 26 235 6.4 17.7 0.00 0.00 0.00 47 1014.5
20260831115523 26 213 6.4 12.9 0.00 0.00 0.00 46 1014.4
20260831115021 27 192 6.4 16.1 0.00 0.00 0.00 46 1014.3
20260831114519 27 211 6.4 14.5 0.00 0.00 0.00 45 1014.4
20260831114017 27 248 8.0 16.1 0.00 0.00 0.00 45 1014.3
20260831113515 27 232 4.8 12.9 0.00 0.00 0.00 45 1014.3
20260831113034 27 243 6.4 17.7 0.00 0.00 0.00 45 1014.2
20260831112532 27 246 6.4 16.1 0.00 0.00 0.00 45 1014.2
20260831112030 27 254 4.8 12.9 0.00 0.00 0.00 46 1014.2
20260831111528 27 219 4.8 11.3 0.00 0.00 0.00 46 1014.2
20260831111026 27 205 3.2 6.4 0.00 0.00 0.00 45 1014.2
20260831110524 27 227 4.8 12.9 0.00 0.00 0.00 45 1014.3
20260831110022 27 227 6.4 11.3 0.00 0.00 0.00 45 1014.2
20260831105521 27 232 4.8 12.9 0.00 0.00 0.00 45 1014.2
20260831105019 27 277 4.8 12.9 0.00 0.00 0.00 43 1014.2
20260831104517 27 286 8.0 16.1 0.00 0.00 0.00 44 1014.4
20260831104035 27 239 6.4 16.1 0.00 0.00 0.00 45 1014.3
20260831103533 27 254 4.8 17.7 0.00 0.00 0.00 46 1014.3
20260831103031 27 264 1.6 4.8 0.00 0.00 0.00 47 1014.3
20260831102530 27 182 3.2 9.7 0.00 0.00 0.00 46 1014.3
20260831102028 27 285 4.8 12.9 0.00 0.00 0.00 46 1014.4
20260831101526 27 240 6.4 14.5 0.00 0.00 0.00 46 1014.4
20260831101024 27 248 4.8 11.3 0.00 0.00 0.00 45 1014.5
20260831100522 27 256 4.8 12.9 0.00 0.00 0.00 46 1014.5
20260831100020 27 269 4.8 12.9 0.00 0.00 0.00 43 1014.5
20260831095518 27 289 8.0 16.1 0.00 0.00 0.00 46 1014.6
20260831095048 26 275 4.8 11.3 0.00 0.00 0.00 48 1014.6
20260831095016 26 275 4.8 11.3 0.00 0.00 0.00 48 1014.6
20260831094535 26 271 6.4 14.5 0.00 0.00 0.00 46 1014.6
20260831094033 26 273 8.0 16.1 0.00 0.00 0.00 46 1014.7
20260831093532 26 284 6.4 12.9 0.00 0.00 0.00 47 1014.7
20260831093029 26 293 4.8 16.1 0.00 0.00 0.00 46 1014.7
20260831092527 26 230 6.4 17.7 0.00 0.00 0.00 47 1014.6
20260831092025 26 261 4.8 11.3 0.00 0.00 0.00 49 1014.6
20260831091523 26 242 6.4 14.5 0.00 0.00 0.00 49 1014.7
20260831091022 26 231 6.4 16.1 0.00 0.00 0.00 51 1014.7
20260831090519 26 274 6.4 17.7 0.00 0.00 0.00 52 1014.7
20260831090018 26 226 6.4 17.7 0.00 0.00 0.00 52 1014.7
20260831085516 25 228 3.2 9.7 0.00 0.00 0.00 56 1014.8
20260831085034 25 210 1.6 6.4 0.00 0.00 0.00 56 1014.8
20260831084532 25 202 4.8 12.9 0.00 0.00 0.00 57 1014.9
20260831084030 25 151 3.2 11.3 0.00 0.00 0.00 58 1014.8
20260831083528 25 165 1.6 6.4 0.00 0.00 0.00 60 1014.9
20260831083026 24 217 3.2 6.4 0.00 0.00 0.00 60 1014.9
20260831082525 24 156 3.2 6.4 0.00 0.00 0.00 62 1015.0
20260831082023 23 187 1.6 11.3 0.00 0.00 0.00 62 1015.0
20260831081521 23 233 1.6 6.4 0.00 0.00 0.00 64 1014.9
20260831081019 23 183 0.0 4.8 0.00 0.00 0.00 64 1014.9
20260831080518 23 180 3.2 4.8 0.00 0.00 0.00 66 1015.0
20260831080048 22 169 3.2 4.8 0.00 0.00 0.00 66 1015.0
20260831080016 22 169 3.2 4.8 0.00 0.00 0.00 66 1015.0
20260831075534 22 128 1.6 3.2 0.00 0.00 0.00 67 1015.0
20260831075032 22 120 0.0 4.8 0.00 0.00 0.00 68 1015.0
20260831074530 22 152 0.0 3.2 0.00 0.00 0.00 69 1015.1
20260831074028 21 165 1.6 6.4 0.00 0.00 0.00 69 1015.1
20260831073526 21 187 0.0 3.2 0.00 0.00 0.00 70 1015.1
20260831073105 21 231 0.0 1.6 0.00 0.00 0.00 70 1015.2
20260831073024 21 231 0.0 1.6 0.00 0.00 0.00 70 1015.2
20260831072523 21 205 0.0 1.6 0.00 0.00 0.00 70 1015.3
20260831072021 20 0.0 0.0 0.00 0.00 0.00 70 1015.3
20260831071519 20 103 0.0 3.2 0.00 0.00 0.00 71 1015.2
20260831071048 20 115 1.6 3.2 0.00 0.00 0.00 72 1015.2
20260831071017 20 115 1.6 3.2 0.00 0.00 0.00 72 1015.2
20260831070535 20 0.0 0.0 0.00 0.00 0.00 73 1015.2
20260831070033 19 0.0 0.0 0.00 0.00 0.00 73 1015.2
20260831065531 19 0.0 0.0 0.00 0.00 0.00 74 1015.2
20260831065030 19 0.0 0.0 0.00 0.00 0.00 74 1015.2
20260831064528 18 160 0.0 1.6 0.00 0.00 0.00 74 1015.2
20260831064026 18 117 0.0 3.2 0.00 0.00 0.00 74 1015.2
20260831063524 18 92 1.6 4.8 0.00 0.00 0.00 75 1015.2
20260831063023 18 102 1.6 4.8 0.00 0.00 0.00 75 1015.2
20260831062521 18 0.0 0.0 0.00 0.00 0.00 76 1015.2
20260831062018 17 0.0 0.0 0.00 0.00 0.00 76 1015.2
20260831061517 17 0.0 0.0 0.00 0.00 0.00 77 1015.3
20260831061035 17 0.0 0.0 0.00 0.00 0.00 77 1015.3
20260831060533 17 0.0 0.0 0.00 0.00 0.00 77 1015.3
20260831060030 17 0.0 0.0 0.00 0.00 0.00 77 1015.3
20260831055528 16 0.0 0.0 0.00 0.00 0.00 77 1015.4
20260831055026 16 0.0 0.0 0.00 0.00 0.00 77 1015.3
20260831054525 16 0.0 0.0 0.00 0.00 0.00 76 1015.4
20260831054022 16 0.0 0.0 0.00 0.00 0.00 76 1015.3
20260831053521 16 0.0 0.0 0.00 0.00 0.00 76 1015.4
20260831053019 16 0.0 0.0 0.00 0.00 0.00 76 1015.3
20260831052517 16 0.0 0.0 0.00 0.00 0.00 76 1015.3
20260831052403 16 0.0 0.0 0.00 0.00 0.00